FW0246 Weather Reports


time (UTC)temp
F
wind
direction
speed
knots
gust
knots
rain 1hr
in
rain 24hr
in
rain mn
in
humidity
%
barometer
mb
20260507002703 47 51 0.0 0.9 0.00 0.04 0.00 94 1011.9
20260507001803 47 51 0.0 0.9 0.00 0.06 0.00 93 1011.8
20260507000903 47 0 0.0 0.0 0.00 0.06 0.00 93 1011.8
20260507000003 47 51 0.0 0.9 0.00 0.06 0.00 93 1011.7
20260506235403 47 51 0.0 0.9 0.00 0.06 0.00 92 1011.7
20260506234719 47 51 0.0 1.7 0.00 0.06 0.00 92 1011.7
20260506233603 47 51 0.0 0.9 0.00 0.06 0.00 92 1011.7
20260506232703 48 0 0.0 0.0 0.00 0.06 0.00 92 1011.7
20260506231803 48 51 0.0 0.9 0.00 0.06 0.00 92 1011.7
20260506231116 48 51 0.0 0.9 0.00 0.06 0.00 92 1011.7
20260506230003 48 0 0.0 0.0 0.00 0.06 0.00 92 1011.8
20260506225619 48 0 0.0 0.0 0.00 0.06 0.00 92 1011.8
20260506224504 48 0 0.0 0.0 0.00 0.06 0.00 92 1011.7
20260506223603 48 0 0.0 0.0 0.00 0.06 0.00 91 1011.7
20260506222703 48 51 0.0 0.9 0.00 0.06 0.00 91 1011.7
20260506221803 48 51 0.0 0.9 0.00 0.06 0.00 92 1011.6
20260506220903 48 0 0.0 0.0 0.00 0.06 0.00 91 1011.5
20260506220003 48 51 0.0 0.9 0.00 0.08 0.00 91 1011.3
20260506215619 48 51 0.0 0.9 0.00 0.09 0.08 91 1011.2
20260506214503 48 51 0.0 0.9 0.00 0.09 0.08 90 1011.0
20260506213603 48 51 0.0 0.9 0.00 0.09 0.08 90 1010.9
20260506212703 48 51 0.0 0.9 0.00 0.09 0.08 90 1010.8
20260506211803 48 51 0.0 0.9 0.00 0.09 0.08 89 1010.7
20260506211116 48 51 0.0 2.6 0.00 0.10 0.08 89 1010.7
20260506210219 48 51 0.0 1.7 0.00 0.10 0.08 89 1010.7
20260506205618 48 51 0.0 0.9 0.00 0.10 0.08 89 1010.7
20260506204503 48 51 0.9 2.6 0.00 0.11 0.08 89 1010.7
20260506203817 48 56 0.9 3.5 0.00 0.12 0.08 89 1010.6
20260506202703 48 36 0.9 2.6 0.00 0.12 0.08 89 1010.5
20260506201803 48 35 0.9 2.6 0.00 0.12 0.08 90 1010.7
20260506200903 48 34 0.0 0.9 0.00 0.13 0.08 91 1010.7
20260506200219 49 0 0.0 0.0 0.00 0.13 0.08 90 1010.5
20260506195403 49 34 0.0 1.7 0.00 0.13 0.08 90 1010.5
20260506194503 49 34 0.0 1.7 0.00 0.13 0.08 89 1010.4
20260506193603 49 34 0.0 1.7 0.00 0.13 0.08 89 1010.2
20260506192704 49 34 0.0 0.9 0.00 0.13 0.08 88 1010.1
20260506192019 49 34 0.0 0.9 0.00 0.13 0.08 88 1009.9
20260506190903 49 33 0.9 2.6 0.00 0.14 0.08 87 1009.7
20260506190003 49 65 0.9 3.5 0.00 0.14 0.08 87 1009.6
20260506185403 49 86 0.9 3.5 0.00 0.14 0.08 87 1009.5
20260506184503 49 22 0.9 5.2 0.00 0.15 0.08 87 1009.3
20260506183604 49 49 0.9 5.2 0.00 0.15 0.08 86 1009.3
20260506182703 50 92 0.9 3.5 0.00 0.15 0.08 86 1009.1
20260506182019 50 68 1.7 6.1 0.00 0.15 0.08 86 1009.1
20260506180903 50 75 1.7 6.1 0.00 0.16 0.08 85 1008.8
20260506180004 50 64 1.7 4.3 0.00 0.16 0.08 85 1008.7
20260506175617 50 66 1.7 4.3 0.00 0.16 0.08 85 1008.8
20260506174503 50 52 0.9 2.6 0.00 0.16 0.08 84 1008.8
20260506173603 51 51 1.7 6.1 0.00 0.17 0.08 84 1008.8
20260506172920 51 65 1.7 3.5 0.00 0.17 0.08 84 1008.7
20260506171803 51 123 0.9 1.7 0.00 0.18 0.08 85 1008.8
20260506170903 51 163 0.9 4.3 0.00 0.19 0.08 84 1008.6
20260506170217 51 51 1.7 5.2 0.00 0.20 0.08 84 1008.6
20260506165403 52 77 1.7 5.2 0.00 0.20 0.08 84 1008.6
20260506164503 52 83 0.9 2.6 0.00 0.20 0.08 85 1008.6
20260506163603 52 97 0.9 3.5 0.00 0.20 0.08 85 1008.6
20260506162703 52 40 1.7 4.3 0.00 0.21 0.08 84 1008.6
20260506161804 52 358 2.6 7.0 0.00 0.21 0.08 83 1008.6
20260506160903 52 31 1.7 7.0 0.00 0.21 0.08 83 1008.5
20260506160003 53 25 0.9 4.3 0.00 0.21 0.08 85 1008.4
20260506155403 52 266 0.9 3.5 0.00 0.21 0.08 87 1008.4
20260506154504 52 62 1.7 7.0 0.00 0.21 0.08 87 1008.3
20260506153603 52 39 1.7 7.0 0.00 0.21 0.08 86 1008.4
20260506152919 52 4 0.9 6.1 0.00 0.21 0.08 86 1008.2
20260506151803 52 31 1.7 4.3 0.00 0.22 0.08 86 1008.2
20260506150903 52 44 1.7 8.7 0.00 0.22 0.08 86 1008.1
20260506150217 53 47 1.7 8.7 0.00 0.23 0.08 85 1008.0
20260506145403 53 50 0.9 4.3 0.00 0.23 0.08 86 1008.0
20260506144503 52 46 1.7 3.5 0.00 0.23 0.08 87 1008.1
20260506143603 53 39 1.7 7.0 0.00 0.24 0.08 86 1008.0
20260506142703 53 227 1.7 3.5 0.00 0.24 0.08 88 1008.0
20260506141803 53 240 0.9 3.5 0.00 0.24 0.08 88 1008.1
20260506140903 53 249 1.7 7.0 0.00 0.25 0.08 88 1008.1
20260506140004 53 258 1.7 7.8 0.00 0.27 0.08 88 1007.9
20260506135403 53 256 0.9 5.2 0.00 0.28 0.08 89 1008.0
20260506134504 53 257 1.7 4.3 0.00 0.28 0.08 89 1008.1
20260506133603 53 236 0.9 4.3 0.00 0.31 0.08 89 1008.0
20260506132703 53 234 1.7 7.0 0.00 0.32 0.08 88 1007.9
20260506132017 53 234 1.7 6.1 0.00 0.33 0.08 88 1007.8
20260506130904 53 238 0.9 3.5 0.00 0.34 0.08 89 1007.8
20260506130003 53 262 0.9 3.5 0.00 0.34 0.08 88 1007.8
20260506125403 53 243 1.7 4.3 0.00 0.35 0.08 88 1007.7
20260506124503 54 246 1.7 4.3 0.00 0.39 0.08 87 1007.6
20260506123603 54 242 0.9 4.3 0.00 0.43 0.08 88 1007.5
20260506122703 54 248 0.9 5.2 0.00 0.43 0.08 88 1007.5
20260506121803 54 274 0.9 3.5 0.00 0.43 0.08 88 1007.4
20260506120903 54 223 0.9 5.2 0.00 0.43 0.08 87 1007.3
20260506120003 54 99 0.9 3.5 0.00 0.43 0.08 88 1007.3
20260506115403 54 243 0.9 3.5 0.00 0.43 0.08 88 1007.2
20260506114503 54 263 0.9 5.2 0.00 0.43 0.08 89 1007.2
20260506113603 54 299 0.9 3.5 0.00 0.43 0.08 88 1007.2
20260506112703 53 220 0.9 3.5 0.00 0.43 0.08 88 1007.1
20260506111803 53 86 0.9 2.6 0.00 0.43 0.08 89 1007.2
20260506110903 53 80 0.0 1.7 0.00 0.43 0.08 90 1007.2
20260506110003 53 63 0.9 2.6 0.00 0.43 0.08 90 1007.0
20260506105403 53 37 1.7 3.5 0.00 0.43 0.08 89 1006.9
20260506104503 53 302 0.9 3.5 0.00 0.43 0.08 88 1007.0
20260506103603 53 287 0.9 5.2 0.00 0.43 0.08 88 1006.9
20260506102917 54 14 0.9 5.2 0.00 0.43 0.08 90 1006.9
20260506102016 53 57 1.7 7.8 0.00 0.43 0.08 91 1006.8
20260506100903 52 70 1.7 3.5 0.00 0.43 0.08 92 1006.7
20260506100003 52 331 0.9 3.5 0.00 0.43 0.08 92 1006.8
20260506095403 52 248 0.9 7.0 0.00 0.43 0.08 92 1006.8
20260506094503 52 235 1.7 4.3 0.00 0.43 0.08 92 1006.7
20260506093603 52 261 1.7 6.1 0.00 0.43 0.08 92 1006.6
20260506092703 52 277 0.9 4.3 0.00 0.43 0.08 92 1006.5
20260506091803 52 253 1.7 8.7 0.00 0.43 0.08 91 1006.4
20260506090903 53 217 1.7 6.1 0.00 0.43 0.08 91 1006.3
20260506090003 53 254 0.9 3.5 0.00 0.43 0.08 91 1006.1
20260506085403 54 274 1.7 6.1 0.00 0.43 0.08 93 1006.1
20260506084503 53 249 0.9 2.6 0.00 0.43 0.08 94 1006.0
20260506083603 53 308 0.9 2.6 0.00 0.43 0.08 94 1005.9
20260506082703 53 60 0.9 2.6 0.00 0.43 0.08 95 1005.9
20260506081803 52 242 0.9 4.3 0.00 0.43 0.08 95 1005.9
20260506080903 52 234 0.9 4.3 0.00 0.43 0.08 95 1005.8
20260506072703 52 249 0.9 3.5 0.00 0.43 0.08 96 1005.6
20260506071804 52 241 0.9 3.5 0.01 0.43 0.08 97 1005.6
20260506070903 52 238 1.7 5.2 0.01 0.43 0.08 96 1005.6
20260506062019 51 75 0.9 2.6 0.00 0.42 0.07 97 1005.3
20260506060903 51 270 0.9 2.6 0.00 0.42 0.07 96 1005.2
20260506050903 52 214 0.0 2.6 0.00 0.42 0.07 97 1005.0
20260506044503 52 0 0.0 0.0 0.00 0.42 0.07 97 1004.9
20260506043603 52 266 0.9 2.6 0.00 0.42 0.07 97 1004.9
20260506042703 52 269 1.7 3.5 0.01 0.42 0.07 97 1004.9
20260506042018 52 272 1.7 6.1 0.01 0.42 0.07 97 1005.0
20260506040003 52 205 0.0 0.9 0.01 0.42 0.07 98 1005.0
20260506035616 52 164 0.0 2.6 0.01 0.42 0.07 98 1004.9
20260506034717 52 300 0.0 1.7 0.01 0.42 0.07 98 1005.0
20260506033603 53 0 0.0 0.9 0.01 0.42 0.07 98 1005.1
20260506032703 53 0 0.0 0.0 0.00 0.41 0.06 98 1005.1
20260506031803 53 282 0.0 2.6 0.00 0.41 0.06 98 1005.1
20260506030903 53 205 0.0 1.7 0.00 0.41 0.06 98 1005.0
20260506025403 53 204 0.0 2.6 0.00 0.41 0.06 98 1005.2
20260506024503 53 319 0.0 2.6 0.00 0.41 0.06 98 1005.1
20260506023603 53 312 0.0 2.6 0.00 0.41 0.06 98 1005.2
20260506021803 53 202 0.0 1.7 0.02 0.41 0.06 98 1005.2
20260506020904 53 210 0.0 0.9 0.02 0.41 0.06 98 1005.2
20260506020003 53 201 0.0 3.5 0.02 0.41 0.06 98 1005.2
20260506015403 53 190 0.0 1.7 0.02 0.41 0.06 98 1005.3
20260506014503 54 159 0.0 0.9 0.02 0.41 0.06 98 1005.4
20260506013603 54 159 0.0 3.5 0.02 0.41 0.06 98 1005.6
20260506012703 54 234 0.0 1.7 0.02 0.40 0.06 98 1005.6
20260506011803 54 0 0.0 0.0 0.02 0.39 0.05 98 1005.7
20260506010903 54 0 0.0 0.0 0.02 0.39 0.05 98 1005.7
20260506010003 53 0 0.0 0.0 0.02 0.39 0.04 98 1005.7
20260506005619 53 0 0.0 0.0 0.02 0.39 0.04 98 1005.7
20260506004504 53 0 0.0 0.0 0.02 0.39 0.04 98 1005.7
20260506003603 53 0 0.0 0.0 0.02 0.39 0.04 98 1005.8